COSMOS 1275 DEB, 14406

Orbit data source: Space-Track

COSMOS 1275 DEB, 14406 is space debris in LEO originally from a launch on Thu, 04 Jun 1981 UTC launched from the Plesetsk Missile And Space Complex (PKMTR). Debris objects in space refer to the collection of defunct objects orbiting the Earth. Examples of debris include non-operational satellites, rocket bodies, and fragments generated from explosions, collisions, or faulty payload assembly.

Loading next visibility...
Identifier
14406, 1981-053JB
Orbit
LEO
Country
Flag of CISCIS
Related business
Manufacturer
Unknown
Mission
Spacecraft
Bus & Motor
Unknown
Mass
Unknown
Launch date (UTC)
1981-06-04 (45 years ago)
Launch vehicle
Unknown
Launch site
Plesetsk Missile And Space Complex (PKMTR)
Object type
Payload
Rocket body
Debris
Shape & HBR
Unknown shape, 0.1 m
Radar Cross Section
Medium (>0.1 m² and <1 m²)

Expand to show TLE details & history
Last TLE update: 18 hours ago

TLE from 18 hours ago
0 COSMOS 1275 DEB
1 14406U 81053JB  26150.16416718  .00003111  00000-0  13997-2 0  9997
2 14406  82.8390  39.4078 0017628 264.2296 249.2130 14.21986491219258
Epoch: 2026-05-30T03:56Z
TLE epoch observation values (Epoch: 2026-05-30T03:56:24.044Z)
Latitude
26.55702°
Longitude
-90.9578°
Altitude
826.443 km
Speed
7.44 km/s
True Right ascension
14h 23m 18s
True Declination
26° 25' 16"
Sunlit
Object was in full shadow at epoch
Visualization orbit readout
Latitude
Unknown
Longitude
Unknown
Altitude
Unknown
Speed
Unknown
Apparent Right ascension
Unknown
Apparent Declination
Unknown
Sunlit
N/A
Visualization observer readout
Local Sidereal Time
07:42:50
Azimuth
Unknown
Elevation
Unknown
Doppler factor
Unknown
Orbital elements
Apogee altitude
828.412 km
Perigee altitude
803.049 km
Semi-major axis
7,193.868 km
Eccentricity
0.00176
Inclination
82.839°
RAAN
39.4078°
Arg. of periapsis
264.2296°
True anomaly
249.02429°
Mean anomaly
249.213°
Eccentric anomaly
249.11863°
Mean motion
3.55713 °/min
Orbital period
101.21 mins
BSTAR
0.0013997
Loading maneuver chart data...
Computing Atmospheric mass density...

Documentation

Showing up to 5 results
|